Overview Statistics Trail Chart Weather Telemetry Raw packets
 

This is the latest recevied weather packets stored in our database for station/object W4UWO. If no packets are shown the sender has not sent any weather packets the latest 10 day(s).

<< 90 91 92 93 94 95 96 >>
Time Temp. Humidity Pressure Rain* Wind** Luminosity Snow
1787952984 33.89° C 33% 1017.8 hPa 0 mm - 413 W/m² -
1787952679 33.33° C 34% 1018.1 hPa 0 mm - 426 W/m² -
1787952378 33.33° C 35% 1018 hPa 0 mm - 450 W/m² -
1787952074 33.33° C 36% 1018 hPa 0 mm - 480 W/m² -
1787951773 33.33° C 36% 1018.1 hPa 0 mm - 495 W/m² -
1787951469 33.33° C 35% 1017.9 hPa 0 mm - 532 W/m² -
1787951165 32.78° C 36% 1018 hPa 0 mm - 525 W/m² -
1787950861 33.33° C 35% 1018.2 hPa 0 mm - 559 W/m² -
1787950556 33.33° C 36% 1018.2 hPa 0 mm - 586 W/m² -
1787950252 33.89° C 36% 1018.1 hPa 0 mm - 618 W/m² -
1787949949 33.89° C 34% 1018.2 hPa 0 mm - 637 W/m² -
1787949648 33.89° C 35% 1018.1 hPa 0 mm - 662 W/m² -
1787949343 33.33° C 34% 1018.3 hPa 0 mm - 665 W/m² -
1787949038 33.33° C 35% 1018.2 hPa 0 mm - 658 W/m² -
1787948734 33.89° C 35% 1018.3 hPa 0 mm - 655 W/m² -
1787948429 33.33° C 37% 1018.5 hPa 0 mm - 655 W/m² -
1787948124 33.33° C 37% 1018.4 hPa 0 mm - 662 W/m² -
1787947823 33.33° C 37% 1018.5 hPa 0 mm - 706 W/m² -
1787947522 32.78° C 40% 1018.5 hPa 0 mm - 705 W/m² -
1787947217 33.33° C 37% 1018.5 hPa 0 mm - 758 W/m² -
1787946916 33.33° C 37% 1018.8 hPa 0 mm - 774 W/m² -
1787946614 32.78° C 36% 1018.7 hPa 0 mm - 787 W/m² -
1787946310 32.78° C 36% 1018.7 hPa 0 mm - 763 W/m² -
1787946010 32.78° C 37% 1018.7 hPa 0 mm - 756 W/m² -
1787945709 32.22° C 40% 1018.7 hPa 0 mm - 761 W/m² -

* Rain latest hour (hover to see other rain measurements)
** Current wind speed in m/s (hover to see current wind gust speed)